Weather History for Buckland, AK

Change the Weather History Date:

Friday, July 19, 2013

  Actual Average (PASK) Record (PASK)
Temperature  
Mean Temperature 56 °F -  
Max Temperature 59 °F 61 °F 71 °F (2003)
Min Temperature 53 °F 50 °F 44 °F (2006)
Degree Days  
Heating Degree Days 9    
Growing Degree Days 6 (Base 50)    
Moisture  
Dew Point 52 °F    
Average Humidity 89    
Maximum Humidity 94    
Minimum Humidity 77    
Precipitation  
Precipitation 0.14 in - - ()
Sea Level Pressure  
Sea Level Pressure 30.14 in    
Wind  
Wind Speed 6 mph (NW)    
Max Wind Speed 10 mph    
Max Gust Speed -    
Visibility 10 miles    
Events      
Averages and records for this station are not official NWS values.
T = Trace of Precipitation, MM = Missing Value Source: NWS Daily Summary

Daily Weather History Graph

Daily Weather History Graph

Search for Another Location

Airport:

Trip Planner

Search our weather history database for the weather conditions in past years. The results will help you decide how hot, cold, wet, or windy it might be!

Date:

Astronomy

Jul. 19, 2013 Rise Set
Actual Time 4:40 AM AKDT 12:58 AM AKDT
Civil Twilight Sun does not rise Sun does not rise
Nautical Twilight Sun does not rise Sun does not rise
Astronomical Twilight Sun does not rise Sun does not rise
Moon 10:01 PM AKDT (7/19) 1:52 AM AKDT (7/19)
Length of Visible Light 24h 00m
Length of Day
20h 18m
Waxing Gibbous, 88% of the Moon is Illuminated
Jul 19
Waxing Gibbous
Jul 22
Full
Jul 29
Last Quarter
Aug 6
New
Aug 14
First Quarter

Hourly Weather History & Observations

Time (AKDT) Temp. Dew Point Humidity Pressure Visibility Wind Dir Wind Speed Gust Speed Precip Events Conditions
12:16 AM 57.2 °F 53.6 °F 88% 30.08 in 10.0 mi NW 6.9 mph - N/A   Clear
12:36 AM 57.2 °F 51.8 °F 82% 30.08 in 10.0 mi WNW 3.5 mph - N/A   Scattered Clouds
12:56 AM 57.2 °F 51.8 °F 82% 30.09 in 10.0 mi NW 3.5 mph - N/A   Mostly Cloudy
1:16 AM 55.4 °F 53.6 °F 94% 30.10 in 10.0 mi WNW 4.6 mph - N/A   Overcast
1:36 AM 55.4 °F 51.8 °F 88% 30.10 in 10.0 mi WNW 6.9 mph - N/A   Overcast
1:56 AM 55.4 °F 51.8 °F 88% 30.10 in 10.0 mi WNW 5.8 mph - N/A   Overcast
2:16 AM 55.4 °F 51.8 °F 88% 30.10 in 10.0 mi NW 6.9 mph - N/A   Overcast
2:36 AM 55.4 °F 51.8 °F 88% 30.10 in 10.0 mi NW 8.1 mph - N/A   Overcast
2:56 AM 55.4 °F 51.8 °F 88% 30.10 in 10.0 mi NW 8.1 mph - N/A   Overcast
3:16 AM 55.4 °F 51.8 °F 88% 30.11 in 10.0 mi WNW 10.4 mph - N/A   Overcast
3:36 AM 55.4 °F 51.8 °F 88% 30.11 in 10.0 mi WNW 10.4 mph - N/A   Overcast
3:56 AM 55.4 °F 51.8 °F 88% 30.11 in 10.0 mi NW 9.2 mph - N/A   Overcast
4:16 AM 55.4 °F 51.8 °F 88% 30.11 in 10.0 mi NW 8.1 mph - N/A   Overcast
4:36 AM 55.4 °F 51.8 °F 88% 30.11 in 10.0 mi NW 6.9 mph - N/A   Overcast
4:56 AM 53.6 °F 51.8 °F 94% 30.11 in 10.0 mi WNW 6.9 mph - N/A   Overcast
5:16 AM 55.4 °F 51.8 °F 88% 30.12 in 10.0 mi WNW 9.2 mph - N/A   Overcast
5:36 AM 55.4 °F 51.8 °F 88% 30.12 in 10.0 mi West 6.9 mph - N/A   Overcast
5:56 AM 53.6 °F 51.8 °F 94% 30.13 in 10.0 mi West 6.9 mph - N/A   Overcast
6:16 AM 53.6 °F 51.8 °F 94% 30.13 in 10.0 mi West 6.9 mph - N/A   Overcast
6:36 AM 53.6 °F 50.0 °F 88% 30.13 in 10.0 mi West 8.1 mph - N/A   Overcast
6:56 AM 53.6 °F 50.0 °F 88% 30.13 in 10.0 mi West 8.1 mph - N/A   Overcast
7:16 AM 53.6 °F 50.0 °F 88% 30.14 in 10.0 mi West 8.1 mph - N/A   Overcast
7:36 AM 53.6 °F 50.0 °F 88% 30.14 in 10.0 mi West 6.9 mph - N/A   Overcast
7:56 AM 53.6 °F 51.8 °F 94% 30.14 in 10.0 mi WNW 8.1 mph - N/A   Overcast
8:16 AM 53.6 °F 51.8 °F 94% 30.15 in 10.0 mi West 6.9 mph - 0.01 in   Overcast
8:36 AM 53.6 °F 50.0 °F 88% 30.15 in 10.0 mi Calm Calm - 0.03 in   Overcast
8:56 AM 53.6 °F 51.8 °F 94% 30.16 in 9.0 mi Calm Calm - 0.06 in   Overcast
9:16 AM 53.6 °F 51.8 °F 94% 30.16 in 9.0 mi Calm Calm - N/A   Overcast
9:36 AM 53.6 °F 51.8 °F 94% 30.16 in 10.0 mi WNW 3.5 mph - 0.01 in   Overcast
9:56 AM 53.6 °F 51.8 °F 94% 30.16 in 10.0 mi WNW 6.9 mph - 0.01 in   Overcast
10:16 AM 55.4 °F 51.8 °F 88% 30.16 in 10.0 mi WNW 5.8 mph - N/A   Mostly Cloudy
10:36 AM 55.4 °F 51.8 °F 88% 30.16 in 10.0 mi NW 6.9 mph - N/A   Overcast
10:56 AM 55.4 °F 51.8 °F 88% 30.16 in 10.0 mi WNW 6.9 mph - N/A   Overcast
11:16 AM 55.4 °F 53.6 °F 94% 30.16 in 10.0 mi WNW 4.6 mph - N/A   Overcast
11:36 AM 55.4 °F 53.6 °F 94% 30.16 in 10.0 mi NW 4.6 mph - N/A   Overcast
11:56 AM 55.4 °F 51.8 °F 88% 30.16 in 10.0 mi NW 3.5 mph - N/A   Overcast
12:16 PM 55.4 °F 51.8 °F 88% 30.16 in 10.0 mi NNW 3.5 mph - N/A   Overcast
12:36 PM 55.4 °F 53.6 °F 94% 30.16 in 10.0 mi NNW 3.5 mph - N/A   Overcast
12:56 PM 57.2 °F 53.6 °F 88% 30.16 in 10.0 mi NW 4.6 mph - N/A   Mostly Cloudy
1:16 PM 55.4 °F 53.6 °F 94% 30.16 in 10.0 mi NNW 5.8 mph - N/A   Overcast
1:36 PM 55.4 °F 53.6 °F 94% 30.16 in 10.0 mi North 3.5 mph - N/A   Overcast
1:56 PM 57.2 °F 53.6 °F 88% 30.16 in 10.0 mi Calm Calm - N/A   Overcast
2:16 PM 57.2 °F 51.8 °F 82% 30.16 in 10.0 mi North 3.5 mph - N/A   Overcast
2:36 PM 57.2 °F 51.8 °F 82% 30.15 in 10.0 mi NNE 3.5 mph - N/A   Overcast
2:56 PM 57.2 °F 51.8 °F 82% 30.15 in 10.0 mi North 3.5 mph - N/A   Mostly Cloudy
3:16 PM 59.0 °F 51.8 °F 77% 30.15 in 10.0 mi Calm Calm - N/A   Mostly Cloudy
3:36 PM 57.2 °F 53.6 °F 88% 30.15 in 10.0 mi NW 5.8 mph - N/A   Mostly Cloudy
3:56 PM 55.4 °F 53.6 °F 94% 30.15 in 10.0 mi NW 4.6 mph - N/A   Overcast
4:16 PM 57.2 °F 53.6 °F 88% 30.15 in 10.0 mi WNW 6.9 mph - N/A   Overcast
4:36 PM 55.4 °F 51.8 °F 88% 30.15 in 10.0 mi WNW 4.6 mph - N/A   Overcast
4:56 PM 55.4 °F 51.8 °F 88% 30.15 in 10.0 mi Calm Calm - N/A   Overcast
5:16 PM 55.4 °F 51.8 °F 88% 30.15 in 10.0 mi NW 4.6 mph - N/A   Overcast
5:36 PM 57.2 °F 51.8 °F 82% 30.14 in 10.0 mi North 3.5 mph - N/A   Scattered Clouds
5:56 PM 57.2 °F 50.0 °F 77% 30.14 in 10.0 mi Calm Calm - N/A   Mostly Cloudy
6:16 PM 57.2 °F 50.0 °F 77% 30.14 in 10.0 mi North 4.6 mph - N/A   Overcast
6:36 PM 57.2 °F 50.0 °F 77% 30.13 in 10.0 mi North 3.5 mph - N/A   Overcast
6:56 PM 57.2 °F 50.0 °F 77% 30.13 in 10.0 mi Calm Calm - N/A   Overcast
7:16 PM 57.2 °F 51.8 °F 82% 30.13 in 10.0 mi SSW 4.6 mph - N/A   Overcast
7:36 PM 57.2 °F 53.6 °F 88% 30.13 in 10.0 mi Calm Calm - N/A   Overcast
7:56 PM 57.2 °F 53.6 °F 88% 30.13 in 6.0 mi SE 3.5 mph - 0.01 in   Overcast
8:16 PM 55.4 °F 53.6 °F 94% 30.13 in 10.0 mi SW 8.1 mph - N/A   Mostly Cloudy
8:36 PM 55.4 °F 53.6 °F 94% 30.13 in 10.0 mi WSW 8.1 mph - N/A   Mostly Cloudy
8:56 PM 55.4 °F 51.8 °F 88% 30.14 in 10.0 mi WNW 5.8 mph - 0.01 in   Overcast
9:16 PM 55.4 °F 51.8 °F 88% 30.14 in 9.0 mi WNW 4.6 mph - N/A   Overcast
9:36 PM 55.4 °F 53.6 °F 94% 30.14 in 10.0 mi WNW 4.6 mph - N/A   Overcast
9:56 PM 55.4 °F 51.8 °F 88% 30.14 in 10.0 mi NW 3.5 mph - N/A   Overcast
10:16 PM 55.4 °F 53.6 °F 94% 30.14 in 10.0 mi West 4.6 mph - 0.03 in   Overcast
10:36 PM 55.4 °F 53.6 °F 94% 30.15 in 5.0 mi NW 4.6 mph - 0.04 in   Overcast
10:56 PM 55.4 °F 51.8 °F 88% 30.15 in 10.0 mi WNW 8.1 mph - 0.04 in   Mostly Cloudy
11:16 PM 53.6 °F 51.8 °F 94% 30.15 in 10.0 mi WNW 5.8 mph - 0.01 in   Mostly Cloudy
11:36 PM 53.6 °F 51.8 °F 94% 30.16 in 10.0 mi WNW 6.9 mph - 0.01 in   Overcast
11:56 PM 53.6 °F 50.0 °F 88% 30.16 in 10.0 mi WNW 5.8 mph - 0.01 in   Overcast